TimeCST,TemperatureF,Dew PointF,Humidity,Sea Level PressureIn,VisibilityMPH,Wind Direction,Wind SpeedMPH,Gust SpeedMPH,PrecipitationIn,Events,Conditions,WindDirDegrees,DateUTC
12:15 AM,44.6,32.0,61,30.35,10.0,NNE,5.8,-,N/A,,Clear,30,2013-01-05 06:15:00
12:35 AM,44.6,30.2,57,30.35,10.0,NNE,4.6,-,N/A,,Clear,20,2013-01-05 06:35:00
12:55 AM,44.6,30.2,57,30.35,10.0,NNE,6.9,-,N/A,,Clear,30,2013-01-05 06:55:00
1:15 AM,44.6,30.2,57,30.34,10.0,NNE,6.9,-,N/A,,Clear,30,2013-01-05 07:15:00
1:35 AM,42.8,30.2,61,30.33,10.0,NNE,5.8,-,N/A,,Clear,30,2013-01-05 07:35:00
1:55 AM,42.8,30.2,61,30.33,10.0,NNE,5.8,-,N/A,,Clear,20,2013-01-05 07:55:00
2:15 AM,42.8,30.2,61,30.34,10.0,NNE,3.5,-,N/A,,Clear,20,2013-01-05 08:15:00
2:35 AM,42.8,30.2,61,30.34,10.0,NNE,4.6,-,N/A,,Clear,30,2013-01-05 08:35:00
2:55 AM,42.8,30.2,61,30.34,10.0,NNE,3.5,-,N/A,,Clear,30,2013-01-05 08:55:00
3:15 AM,42.8,30.2,61,30.35,10.0,North,3.5,-,N/A,,Clear,10,2013-01-05 09:15:00
3:35 AM,42.8,30.2,61,30.35,10.0,Calm,Calm,-,N/A,,Clear,0,2013-01-05 09:35:00
3:55 AM,41.0,32.0,70,30.33,10.0,NNE,5.8,-,N/A,,Clear,30,2013-01-05 09:55:00
4:15 AM,41.0,30.2,65,30.33,10.0,Calm,Calm,-,N/A,,Clear,0,2013-01-05 10:15:00
4:35 AM,41.0,30.2,65,30.33,10.0,NE,6.9,-,N/A,,Clear,40,2013-01-05 10:35:00
4:55 AM,42.8,30.2,61,30.32,10.0,NE,5.8,-,N/A,,Clear,40,2013-01-05 10:55:00
5:15 AM,42.8,30.2,61,30.33,10.0,NE,4.6,-,N/A,,Clear,40,2013-01-05 11:15:00
5:35 AM,42.8,30.2,61,30.32,10.0,NNE,6.9,-,N/A,,Clear,30,2013-01-05 11:35:00
5:55 AM,42.8,30.2,61,30.33,10.0,NNE,6.9,-,N/A,,Clear,30,2013-01-05 11:55:00
6:15 AM,42.8,30.2,61,30.34,10.0,NNE,5.8,-,N/A,,Clear,30,2013-01-05 12:15:00
6:35 AM,42.8,30.2,61,30.34,10.0,NNE,4.6,-,N/A,,Clear,30,2013-01-05 12:35:00
7:15 AM,42.8,30.2,61,30.34,10.0,ENE,8.1,-,N/A,,Clear,60,2013-01-05 13:15:00
7:35 AM,44.6,30.2,57,30.36,10.0,NE,4.6,-,N/A,,Clear,50,2013-01-05 13:35:00
7:55 AM,44.6,30.2,57,30.36,10.0,NE,4.6,-,N/A,,Clear,50,2013-01-05 13:55:00
8:15 AM,44.6,30.2,57,30.35,10.0,ENE,6.9,-,N/A,,Clear,60,2013-01-05 14:15:00
8:35 AM,46.4,30.2,53,30.36,10.0,NE,6.9,-,N/A,,Clear,50,2013-01-05 14:35:00
8:55 AM,46.4,30.2,53,30.36,10.0,NE,6.9,-,N/A,,Clear,50,2013-01-05 14:55:00
9:15 AM,48.2,30.2,50,30.36,10.0,NE,8.1,-,N/A,,Clear,50,2013-01-05 15:15:00
9:55 AM,50.0,30.2,47,30.37,10.0,NE,5.8,-,N/A,,Clear,50,2013-01-05 15:55:00
10:15 AM,50.0,32.0,50,30.37,10.0,NE,4.6,-,N/A,,Clear,50,2013-01-05 16:15:00
11:15 AM,51.8,30.2,44,30.32,10.0,ENE,9.2,17.3,N/A,,Clear,70,2013-01-05 17:15:00
11:35 AM,51.8,30.2,44,30.34,10.0,NE,8.1,-,N/A,,Clear,50,2013-01-05 17:35:00
11:55 AM,53.6,32.0,44,30.31,10.0,ENE,11.5,-,N/A,,Clear,70,2013-01-05 17:55:00
12:15 PM,53.6,32.0,44,30.30,10.0,ENE,11.5,-,N/A,,Clear,70,2013-01-05 18:15:00
12:35 PM,53.6,32.0,44,30.28,10.0,ENE,11.5,-,N/A,,Clear,70,2013-01-05 18:35:00
12:55 PM,53.6,32.0,44,30.28,10.0,ENE,10.4,-,N/A,,Clear,60,2013-01-05 18:55:00
1:15 PM,53.6,32.0,44,30.28,10.0,East,8.1,-,N/A,,Clear,80,2013-01-05 19:15:00
1:35 PM,53.6,33.8,47,30.29,10.0,NE,5.8,-,N/A,,Clear,50,2013-01-05 19:35:00
1:55 PM,53.6,33.8,47,30.29,10.0,ENE,6.9,-,N/A,,Clear,60,2013-01-05 19:55:00
2:15 PM,53.6,33.8,47,30.28,10.0,ENE,8.1,-,N/A,,Clear,70,2013-01-05 20:15:00
2:35 PM,53.6,33.8,47,30.30,10.0,North,3.5,-,N/A,,Clear,10,2013-01-05 20:35:00
2:55 PM,53.6,33.8,47,30.29,10.0,NNE,4.6,-,N/A,,Clear,20,2013-01-05 20:55:00
3:15 PM,53.6,33.8,47,30.31,10.0,Calm,Calm,-,N/A,,Clear,0,2013-01-05 21:15:00
3:35 PM,53.6,33.8,47,30.29,10.0,NE,4.6,-,N/A,,Clear,50,2013-01-05 21:35:00
3:55 PM,51.8,33.8,50,30.28,10.0,NE,5.8,-,N/A,Rain,Light Rain,40,2013-01-05 21:55:00
4:15 PM,51.8,33.8,50,30.29,10.0,North,4.6,-,N/A,Rain,Light Rain,10,2013-01-05 22:15:00
4:55 PM,51.8,35.6,54,30.30,10.0,NNE,4.6,-,N/A,,Mostly Cloudy,20,2013-01-05 22:55:00
5:15 PM,51.8,33.8,50,30.28,10.0,NE,6.9,-,N/A,,Overcast,40,2013-01-05 23:15:00
5:35 PM,51.8,35.6,54,30.30,10.0,NNE,4.6,-,N/A,,Overcast,20,2013-01-05 23:35:00
5:55 PM,51.8,35.6,54,30.29,10.0,NE,6.9,-,N/A,,Overcast,40,2013-01-05 23:55:00
6:15 PM,51.8,33.8,50,30.29,10.0,ENE,8.1,-,N/A,,Overcast,70,2013-01-06 00:15:00
8:55 PM,51.8,33.8,50,30.28,10.0,NE,5.8,-,N/A,,Overcast,40,2013-01-06 02:55:00
9:15 PM,51.8,33.8,50,30.27,10.0,ENE,5.8,-,N/A,,Mostly Cloudy,60,2013-01-06 03:15:00
9:35 PM,50.0,35.6,58,30.27,10.0,NE,3.5,-,N/A,,Scattered Clouds,40,2013-01-06 03:35:00
9:55 PM,50.0,35.6,58,30.26,10.0,NE,3.5,-,N/A,,Scattered Clouds,50,2013-01-06 03:55:00
10:15 PM,50.0,35.6,58,30.25,10.0,ENE,5.8,-,N/A,,Clear,70,2013-01-06 04:15:00
10:35 PM,50.0,35.6,58,30.26,10.0,Calm,Calm,-,N/A,,Scattered Clouds,0,2013-01-06 04:35:00
10:55 PM,50.0,35.6,58,30.25,10.0,ENE,3.5,-,N/A,,Mostly Cloudy,70,2013-01-06 04:55:00
11:15 PM,50.0,35.6,58,30.27,10.0,Calm,Calm,-,N/A,,Scattered Clouds,0,2013-01-06 05:15:00
11:35 PM,50.0,35.6,58,30.26,10.0,Calm,Calm,-,N/A,,Mostly Cloudy,0,2013-01-06 05:35:00
11:55 PM,50.0,35.6,58,30.24,10.0,NNE,3.5,-,N/A,,Overcast,20,2013-01-06 05:55:00